DW4776 Weather Reports


time (UTC)temp
C
wind
direction
speed
KPH
gust
KPH
rain 1hr
cm
rain 24hr
cm
rain mn
cm
humidity
%
barometer
mb
20260506164551 9 218 19.3 27.4 0.00 0.00 0.00 33 1014.1
20260506163041 8 216 12.9 27.4 0.00 0.00 0.00 37 1014.3
20260506161537 7 221 12.9 24.1 0.00 0.00 0.00 41 1014.6
20260506160039 7 175 17.7 24.1 0.00 0.00 0.00 43 1014.7
20260506154548 6 223 9.7 19.3 0.00 0.00 0.00 45 1015.0
20260506153036 5 206 12.9 22.5 0.00 0.00 0.00 46 1015.3
20260506151537 5 206 8.0 16.1 0.00 0.00 0.00 47 1015.5
20260506150104 5 212 9.7 14.5 0.00 0.00 0.00 47 1015.5
20260506144537 4 182 8.0 16.1 0.00 0.00 0.00 46 1015.5
20260506143037 3 180 8.0 14.5 0.00 0.00 0.00 46 1015.7
20260506141537 3 244 4.8 9.7 0.00 0.00 0.00 45 1016.0
20260506140039 2 229 3.2 6.4 0.00 0.00 0.00 48 1016.1
20260506134537 1 229 1.6 6.4 0.00 0.00 0.00 53 1016.2
20260506133037 0 212 4.8 6.4 0.00 0.00 0.00 58 1016.2
20260506131539 -1 200 1.6 8.0 0.00 0.00 0.00 59 1016.1
20260506130037 -2 205 1.6 6.4 0.00 0.00 0.00 61 1016.1
20260506124540 -3 205 1.6 6.4 0.00 0.00 0.00 62 1016.4
20260506123042 -3 205 3.2 8.0 0.00 0.00 0.00 64 1016.6
20260506121538 -4 205 1.6 6.4 0.00 0.00 0.00 66 1016.5
20260506120104 -5 205 4.8 8.0 0.00 0.00 0.00 67 1016.5
20260506114539 -5 205 4.8 8.0 0.00 0.00 0.00 63 1016.6
20260506113037 -5 205 1.6 6.4 0.00 0.00 0.00 65 1016.9
20260506111539 -5 205 0.0 6.4 0.00 0.00 0.00 67 1017.1
20260506110038 -5 205 4.8 8.0 0.00 0.00 0.00 69 1017.3
20260506104541 -6 205 0.0 3.2 0.00 0.00 0.00 67 1017.4
20260506103037 -6 0 0.0 3.2 0.00 0.00 0.00 64 1017.6
20260506101537 -5 0 1.6 8.0 0.00 0.00 0.00 64 1017.6
20260506100041 -5 205 1.6 6.4 0.00 0.00 0.00 63 1017.8
20260506094540 -5 205 1.6 3.2 0.00 0.00 0.00 65 1018.0
20260506093044 -5 205 1.6 3.2 0.00 0.00 0.00 63 1018.1
20260506091537 -5 205 1.6 6.4 0.00 0.00 0.00 61 1018.1
20260506090040 -4 0 3.2 8.0 0.00 0.00 0.00 60 1018.1
20260506084537 -4 205 0.0 8.0 0.00 0.00 0.00 58 1018.2
20260506083042 -3 205 0.0 4.8 0.00 0.00 0.00 57 1018.3
20260506081540 -3 205 1.6 6.4 0.00 0.00 0.00 59 1018.6
20260506073037 -4 177 0.0 3.2 0.00 0.00 0.00 56 1018.8
20260506071547 -3 0 0.0 3.2 0.00 0.00 0.00 57 1018.8
20260506061538 -3 298 1.6 3.2 0.00 0.00 0.00 52 1019.1
20260506044551 0 298 1.6 4.8 0.00 0.00 0.00 43 1019.3
20260506043037 1 298 1.6 6.4 0.00 0.00 0.00 44 1019.4
20260506041547 2 0 3.2 12.9 0.00 0.00 0.00 44 1019.3
20260506040044 1 354 11.3 14.5 0.00 0.00 0.00 45 1019.4
20260506034538 2 5 11.3 16.1 0.00 0.00 0.00 43 1019.3
20260506033038 3 2 9.7 12.9 0.00 0.00 0.00 42 1019.2
20260506031553 2 354 9.7 12.9 0.00 0.00 0.00 42 1019.3
20260506030048 3 359 8.0 12.9 0.00 0.00 0.00 39 1019.1
20260506024538 5 360 8.0 9.7 0.00 0.00 0.00 37 1019.0
20260506023040 5 4 9.7 19.3 0.00 0.00 0.00 36 1019.1
20260506021535 6 348 12.9 20.9 0.00 0.00 0.00 34 1019.1
20260506020037 6 329 16.1 27.4 0.00 0.00 0.00 34 1018.9
20260506014538 6 341 17.7 29.0 0.00 0.00 0.00 33 1018.9
20260506013041 7 347 22.5 32.2 0.00 0.00 0.00 32 1018.9
20260506011537 7 359 20.9 32.2 0.00 0.00 0.00 32 1018.7
20260506010040 7 360 19.3 30.6 0.00 0.00 0.00 32 1018.7
20260506004605 7 352 19.3 30.6 0.00 0.00 0.00 32 1018.6
20260506003038 7 349 22.5 45.1 0.00 0.00 0.00 31 1018.7
20260506001537 7 359 20.9 37.0 0.00 0.00 0.00 32 1018.7
20260506000041 7 351 22.5 37.0 0.00 0.00 0.00 31 1018.7
20260505234604 8 333 24.1 41.8 0.00 0.00 0.00 32 1018.7
20260505233041 8 324 27.4 40.2 0.00 0.00 0.00 31 1018.7
20260505231539 8 350 27.4 38.6 0.00 0.00 0.00 32 1018.6
20260505230047 8 354 25.7 38.6 0.00 0.00 0.00 32 1018.7
20260505224541 8 339 32.2 46.7 0.00 0.00 0.00 33 1018.6
20260505223058 8 352 25.7 38.6 0.00 0.00 0.00 32 1018.6
20260505221556 7 357 30.6 41.8 0.00 0.00 0.00 33 1018.6
20260505220048 7 279 25.7 40.2 0.00 0.00 0.00 32 1018.7
20260505214543 8 319 20.9 48.3 0.00 0.00 0.00 33 1018.8
20260505213046 7 353 22.5 45.1 0.00 0.00 0.00 32 1018.8
20260505211537 7 308 25.7 41.8 0.00 0.00 0.00 34 1019.1
20260505210044 7 325 17.7 46.7 0.00 0.00 0.00 36 1019.0
20260505204540 7 6 30.6 38.6 0.00 0.00 0.00 35 1019.2
20260505203037 7 315 22.5 41.8 0.00 0.00 0.00 35 1019.4
20260505201537 6 341 25.7 40.2 0.00 0.00 0.00 37 1019.3
20260505200042 7 330 25.7 45.1 0.00 0.00 0.00 37 1019.4
20260505194538 7 331 24.1 35.4 0.00 0.00 0.00 38 1019.3
20260505193036 6 322 25.7 41.8 0.00 0.00 0.00 37 1019.3
20260505191537 6 324 27.4 40.2 0.00 0.00 0.00 39 1019.4
20260505190047 6 352 25.7 40.2 0.00 0.00 0.00 40 1019.2
20260505184535 6 335 30.6 40.2 0.00 0.00 0.00 41 1019.3
20260505183045 6 348 22.5 43.5 0.00 0.00 0.00 39 1019.3
20260505181538 6 331 27.4 46.7 0.00 0.00 0.00 40 1019.4
20260505180035 6 330 25.7 40.2 0.00 0.00 0.00 41 1019.5
20260505174545 6 334 29.0 43.5 0.00 0.00 0.00 41 1019.4
20260505173044 5 20 25.7 40.2 0.00 0.00 0.00 43 1019.5
20260505171537 5 331 25.7 40.2 0.00 0.00 0.00 45 1019.6
20260505170038 5 322 22.5 35.4 0.00 0.00 0.00 43 1019.6